Location: Mount Cross
(36.6390°N, 79.4878°W)
Time: 11:15:33
(UTC+00:00)

Vanguard 1 Rocket - All Passes

Search period start: 30 March 2023 00:00
Search period end: 09 April 2023 00:00
Orbit: 652 x 4223 km, 34.3° (Epoch: 29 March)

Date Brightness Start Highest point End Pass type
(mag) Time Alt. Az. Time Alt. Az. Time Alt. Az.
30 Mar - 00:07:54 10° SSW 00:30:07 39° SE 00:49:29 10° E visible
30 Mar - 02:35:31 10° SW 03:01:26 69° SSE 03:18:19 10° E visible
30 Mar - 05:09:19 10° W 05:32:22 83° S 05:44:17 10° E visible
30 Mar - 07:44:20 10° W 08:00:20 59° SSW 08:08:24 10° SE visible
30 Mar - 10:19:12 10° W 10:24:16 15° SW 10:28:09 10° SSW visible
30 Mar - 22:57:32 10° S 23:15:59 27° SE 23:34:05 10° E daylight
31 Mar - 01:21:23 10° SW 01:46:35 58° SSE 02:05:51 10° E visible
31 Mar - 03:52:55 10° WSW 04:18:20 81° S 04:32:54 10° E visible
31 Mar - 06:28:06 10° W 06:48:05 74° SSW 06:57:59 10° ESE visible
31 Mar - 09:02:38 10° W 09:13:47 32° SW 09:20:20 10° SSE visible
31 Mar - 21:50:35 10° SSE 22:02:26 16° SE 22:14:48 10° E daylight
01 Apr - 00:08:41 10° SSW 00:31:49 46° SE 00:52:27 10° E visible
01 Apr - 02:37:18 10° WSW 03:03:38 74° SSE 03:21:01 10° E visible
01 Apr - 05:11:30 10° W 05:34:52 82° S 05:47:04 10° E visible
01 Apr - 07:46:37 10° W 08:02:36 51° SSW 08:10:53 10° SE visible
01 Apr - 10:24:38 10° WSW 10:26:08 10° WSW 10:27:31 10° SW visible
01 Apr - 22:57:38 10° SSW 23:17:30 34° SE 23:37:38 10° E daylight
02 Apr - 01:22:53 10° SW 01:48:32 65° SSE 02:08:31 10° E visible
02 Apr - 03:55:02 10° W 04:20:45 83° S 04:35:39 10° E visible
02 Apr - 06:30:18 10° W 06:50:29 69° SSW 07:00:39 10° ESE visible
02 Apr - 09:05:27 10° W 09:15:44 25° SW 09:22:10 10° S visible
02 Apr - 21:48:52 10° S 22:03:54 22° SE 22:20:15 10° E daylight
03 Apr - 00:09:51 10° SW 00:33:31 53° SSE 00:55:13 10° ENE visible
03 Apr - 02:39:17 10° WSW 03:05:52 79° SSE 03:23:42 10° E visible
03 Apr - 05:13:43 10° W 05:37:20 79° SSW 05:49:48 10° ESE visible
03 Apr - 07:48:57 10° WNW 08:04:43 44° SW 08:13:12 10° SSE visible
03 Apr - 20:50:09 10° SE 20:50:59 10° ESE 20:51:48 10° ESE daylight
03 Apr - 22:58:19 10° SSW 23:19:00 40° SE 23:40:43 10° E daylight
04 Apr - 01:24:39 10° WSW 01:50:32 71° SSE 02:11:09 10° E visible
04 Apr - 03:57:14 10° W 04:23:09 83° S 04:38:23 10° E visible
04 Apr - 06:32:29 10° W 06:52:45 62° SSW 07:03:12 10° SE visible
04 Apr - 09:08:40 10° W 09:17:32 20° SW 09:23:35 10° S visible
04 Apr - 21:48:33 10° S 22:05:16 28° SE 22:24:19 10° E daylight
05 Apr - 00:11:20 10° SW 00:35:15 60° SSE 00:57:50 10° ENE visible
05 Apr - 02:41:24 10° WSW 03:08:08 82° S 03:26:23 10° E visible
05 Apr - 05:15:55 10° W 05:39:42 75° SSW 05:52:28 10° ESE visible
05 Apr - 07:51:25 10° WNW 08:06:39 37° SW 08:15:17 10° SSE visible
05 Apr - 20:42:12 10° SSE 20:52:21 15° SE 21:03:51 10° E daylight
05 Apr - 22:59:25 10° SSW 23:20:29 47° SE 23:43:30 10° ENE daylight
06 Apr - 01:26:38 10° WSW 01:52:35 76° SSE 02:13:45 10° E visible
06 Apr - 03:59:28 10° W 04:25:33 82° S 04:41:04 10° ESE visible
06 Apr - 06:34:42 10° WNW 06:54:52 55° SSW 07:05:36 10° SE visible
06 Apr - 09:12:37 10° W 09:19:12 15° WSW 09:24:13 10° SSW visible
06 Apr - 21:49:01 10° S 22:06:36 34° SE 22:27:41 10° E daylight
07 Apr - 00:13:06 10° SW 00:37:03 67° SSE 01:00:22 10° ENE visible
07 Apr - 02:43:38 10° W 03:10:26 84° S 03:29:02 10° E visible
07 Apr - 05:18:05 10° W 05:41:57 70° SSW 05:55:02 10° ESE visible
07 Apr - 07:54:03 10° W 08:08:26 30° SW 08:17:05 10° S visible
07 Apr - 20:40:50 10° SSE 20:53:39 21° SE 21:09:13 10° E daylight
07 Apr - 23:00:52 10° SW 23:22:02 54° SE 23:46:06 10° ENE daylight
08 Apr - 01:28:46 10° WSW 01:54:43 80° SSE 02:16:20 10° E visible
08 Apr - 04:01:43 10° W 04:27:52 80° SSW 04:43:43 10° ESE visible
08 Apr - 06:36:57 10° WNW 06:56:49 48° SW 07:07:48 10° SSE visible
08 Apr - 09:19:34 10° WSW 09:20:46 10° WSW 09:21:55 10° SW night (unlit)
08 Apr - 21:50:00 10° SSW 22:07:56 40° SE 22:30:35 10° ENE daylight
